Change the Weather History Date:

Monday, March 18, 2013

  Actual Average Record
Temperature  
Mean Temperature 68 °F -  
Max Temperature 79 °F 65 °F 85 °F (2012)
Min Temperature 56 °F 46 °F 36 °F (2014)
Cooling Degree Days 3    
Growing Degree Days 18 (Base 50)    
Moisture  
Dew Point 60 °F    
Average Humidity 72    
Maximum Humidity 88    
Minimum Humidity 54    
Precipitation  
Precipitation 0.00 in - - ()
Sea Level Pressure  
Sea Level Pressure 29.81 in    
Wind  
Wind Speed 12 mph (West)    
Max Wind Speed 16 mph    
Max Gust Speed 23 mph    
Visibility 10 miles    
Events      
Averages and records for this station are not official NWS values.
T = Trace of Precipitation, MM = Missing Value Source: NWS Daily Summary

Daily Weather History Graph

Daily Weather History Graph

Search for Another Location

Airport or City:

Trip Planner

Search our weather history database for the weather conditions in past years. The results will help you decide how hot, cold, wet, or windy it might be!

Date:

Astronomy

Mar. 18, 2013 Rise Set
Actual Time 7:20 AM CDT 7:24 PM CDT
Civil Twilight 6:56 AM CDT 7:49 PM CDT
Nautical Twilight 6:27 AM CDT 8:18 PM CDT
Astronomical Twilight 5:58 AM CDT 8:46 PM CDT
Moon 11:39 AM CDT (3/18) 1:06 AM CDT (3/18)
Length of Visible Light 12h 53m
Length of Day
12h 04m
Waxing Crescent, 41% of the Moon is Illuminated
Mar 18
Waxing Crescent
Mar 19
First Quarter
Mar 27
Full
Apr 2
Last Quarter
Apr 10
New

Hourly Weather History & Observations

Time (CDT) Temp. Dew Point Humidity Pressure Visibility Wind Dir Wind Speed Gust Speed Precip Events Conditions
12:38 AM 68.0 °F 62.6 °F 83% 29.72 in 10.0 mi South 10.4 mph - N/A   Mostly Cloudy
12:58 AM 68.0 °F 62.4 °F 82% 29.73 in 10.0 mi South 15.0 mph - N/A   Mostly Cloudy
1:58 AM 67.8 °F 62.6 °F 83% 29.74 in 10.0 mi South 12.7 mph - N/A   Mostly Cloudy
2:08 AM 68.0 °F 62.6 °F 83% 29.73 in 10.0 mi South 13.8 mph - N/A   Mostly Cloudy
2:58 AM 68.0 °F 62.4 °F 82% 29.75 in 10.0 mi SSW 9.2 mph - N/A   Overcast
3:58 AM 67.5 °F 61.9 °F 82% 29.74 in 10.0 mi SSW 8.1 mph - N/A   Overcast
4:58 AM 66.2 °F 62.6 °F 88% 29.75 in 10.0 mi SW 8.1 mph - N/A   Overcast
5:58 AM 66.4 °F 62.4 °F 87% 29.74 in 10.0 mi South 12.7 mph - N/A   Overcast
6:28 AM 66.2 °F 62.6 °F 88% 29.73 in 10.0 mi SSW 16.1 mph 21.9 mph N/A   Overcast
6:58 AM 66.7 °F 61.2 °F 82% 29.75 in 10.0 mi South 11.5 mph - N/A   Overcast
7:58 AM 67.3 °F 61.2 °F 81% 29.77 in 10.0 mi SSW 11.5 mph 19.6 mph N/A   Overcast
8:58 AM 68.0 °F 61.5 °F 80% 29.77 in 10.0 mi South 11.5 mph - N/A   Overcast
9:58 AM 70.0 °F 61.5 °F 74% 29.77 in 10.0 mi SSW 16.1 mph 23.0 mph N/A   Overcast
10:58 AM 71.6 °F 62.6 °F 73% 29.82 in 10.0 mi West 15.0 mph 23.0 mph N/A   Overcast
11:58 AM 73.9 °F 62.4 °F 67% 29.80 in 10.0 mi West 16.1 mph - N/A   Mostly Cloudy
12:57 PM 73.9 °F 62.6 °F 68% 29.81 in 10.0 mi WSW 10.4 mph - N/A   Mostly Cloudy
12:58 PM - - N/A% 29.81 in 10.0 mi WSW 10.4 mph - N/A   Mostly Cloudy
1:35 PM 77.0 °F 62.6 °F 61% 29.79 in 10.0 mi West 11.5 mph - N/A   Scattered Clouds
1:48 PM 78.8 °F 60.8 °F 54% 29.78 in 10.0 mi WNW 13.8 mph 20.7 mph N/A   Partly Cloudy
1:58 PM 77.0 °F 62.6 °F 61% 29.80 in 10.0 mi North 12.7 mph - N/A   Scattered Clouds
2:07 PM 77.0 °F 62.6 °F 61% 29.78 in 10.0 mi North 13.8 mph - N/A   Mostly Cloudy
2:58 PM 74.5 °F 61.9 °F 65% 29.78 in 10.0 mi North 12.7 mph - N/A   Mostly Cloudy
3:58 PM 75.7 °F 60.6 °F 59% 29.79 in 10.0 mi North 12.7 mph 20.7 mph N/A   Partly Cloudy
4:58 PM 74.5 °F 58.8 °F 58% 29.81 in 10.0 mi North 12.7 mph 20.7 mph N/A   Overcast
5:58 PM 73.0 °F 57.9 °F 59% 29.82 in 10.0 mi North 11.5 mph - N/A   Clear
6:58 PM 69.8 °F 55.9 °F 61% 29.85 in 10.0 mi North 9.2 mph - N/A   Clear
7:58 PM 66.6 °F 54.5 °F 65% 29.89 in 10.0 mi North 9.2 mph - N/A   Clear
8:58 PM 64.0 °F 53.4 °F 68% 29.93 in 10.0 mi NNE 10.4 mph 18.4 mph N/A   Clear
9:58 PM 61.2 °F 50.2 °F 67% 29.97 in 10.0 mi NNE 9.2 mph - N/A   Clear
10:58 PM 58.8 °F 48.0 °F 67% 30.01 in 10.0 mi NNE 8.1 mph - N/A   Clear
11:58 PM 56.5 °F 46.4 °F 69% 30.03 in 10.0 mi NNE 6.9 mph - N/A   Clear